DW8054 Weather Reports


time (UTC)temp
C
wind
direction
speed
KPH
gust
KPH
rain 1hr
cm
rain 24hr
cm
rain mn
cm
humidity
%
barometer
mb
20260504234602 17 360 3.2 6.4 0.00 0.00 0.00 43 1004.9
20260504233050 18 360 1.6 6.4 0.00 0.00 0.00 42 1004.9
20260504231551 18 360 1.6 12.9 0.00 0.00 0.00 39 1004.7
20260504230052 19 360 3.2 16.1 0.00 0.00 0.00 39 1004.4
20260504224552 19 360 4.8 12.9 0.00 0.00 0.00 38 1004.2
20260504223050 20 259 6.4 17.7 0.00 0.00 0.00 37 1004.2
20260504221548 20 258 4.8 16.1 0.00 0.00 0.00 37 1004.1
20260504220055 20 298 6.4 22.5 0.00 0.00 0.00 36 1004.1
20260504214546 21 244 8.0 19.3 0.00 0.00 0.00 36 1004.1
20260504213106 20 272 9.7 17.7 0.00 0.00 0.00 37 1004.2
20260504211545 20 240 8.0 22.5 0.00 0.00 0.00 37 1004.1
20260504210044 21 261 6.4 30.6 0.00 0.00 0.00 35 1004.1
20260504204545 21 338 6.4 25.7 0.00 0.00 0.00 37 1003.9
20260504203041 20 232 11.3 33.8 0.00 0.00 0.00 38 1004.1
20260504201540 20 234 8.0 25.7 0.00 0.00 0.00 40 1004.0
20260504200039 20 258 6.4 25.7 0.00 0.00 0.00 37 1004.0
20260504194538 20 326 8.0 24.1 0.00 0.00 0.00 38 1004.1
20260504193052 20 315 6.4 29.0 0.00 0.00 0.00 38 1004.3
20260504191536 20 255 9.7 24.1 0.00 0.00 0.00 38 1004.2
20260504190035 20 257 6.4 30.6 0.00 0.00 0.00 40 1004.4
20260504184533 18 227 9.7 25.7 0.00 0.00 0.00 38 1004.5
20260504183038 19 360 8.0 24.1 0.00 0.00 0.00 37 1004.5
20260504181534 20 332 8.0 30.6 0.00 0.00 0.00 40 1004.3
20260504180034 20 227 8.0 27.4 0.00 0.00 0.00 39 1004.2
20260504174529 20 296 12.9 25.7 0.00 0.00 0.00 37 1004.4
20260504173030 18 326 9.7 24.1 0.00 0.00 0.00 40 1004.6
20260504171528 19 222 9.7 25.7 0.00 0.00 0.00 36 1004.6
20260504100118 5 360 3.2 8.0 0.00 0.00 0.00 73 1008.0
20260504081600 4 360 1.6 8.0 0.00 0.00 0.00 71 1007.8
20260504044542 4 360 4.8 12.9 0.00 0.00 0.00 70 1007.6
20260504043046 4 360 6.4 14.5 0.00 0.00 0.00 69 1007.5
20260504041536 4 360 6.4 14.5 0.00 0.00 0.00 68 1007.4
20260504040034 5 360 4.8 11.3 0.00 0.00 0.00 67 1007.3
20260504034531 5 360 4.8 9.7 0.00 0.00 0.00 66 1007.2
20260504033031 5 360 4.8 9.7 0.00 0.00 0.00 67 1007.2
20260504031530 5 360 1.6 12.9 0.00 0.00 0.00 67 1007.1
20260504030030 5 360 1.6 6.4 0.00 0.03 0.00 66 1007.0
20260504024530 5 360 1.6 8.0 0.00 0.03 0.00 65 1007.0
20260504023029 5 360 1.6 8.0 0.00 0.03 0.00 69 1007.0
20260504021534 3 289 0.0 4.8 0.00 0.03 0.00 72 1007.0
20260504020034 3 290 1.6 4.8 0.00 0.05 0.00 72 1006.9
20260504014534 4 299 0.0 3.2 0.00 0.05 0.00 71 1007.0
20260504013023 5 360 0.0 3.2 0.00 0.05 0.00 68 1007.0
20260504011522 5 360 0.0 4.8 0.00 0.05 0.00 66 1006.9
20260504010021 6 360 0.0 4.8 0.00 0.13 0.00 63 1006.7
20260504004521 6 360 1.6 8.0 0.00 0.13 0.00 62 1006.4
20260504003020 6 360 1.6 9.7 0.00 0.13 0.00 61 1006.2
20260504001520 6 360 3.2 9.7 0.00 0.13 0.00 60 1006.1
20260504000019 7 360 4.8 9.7 0.00 0.20 0.00 59 1005.9